Погода в Вильнюсе

Погода в Вильнюсе : погода сейчас, прогноз погоды и архив. Всё, что Вы хотите узнать о погоде в Вильнюсе!

Поиск расширенной информации на нашем сайте:

Полезная информация:

Другие новости

Новости СМИ2

Главная страница сайта

Новости сайта

03.07.2017

Напоминаем, что на нашем специализированном сайте Метеоцентр.Азия вы можете получить высокодетализированные автоматические прогнозы погоды по пунктам России, СНГ и мира в авиационном формате (включающие направление и скорость ветра, видимость, явления погоды, количество и форму облачности, нижнюю и верхнюю границу облачности).

Рекомендуем:

Погода в Вильнюсе - сегодня

Время (UTC), дата Ветер
(°,м/с) 
Видим.   Явления Облачность Т
(°С)
Тd
(°С)
f(%) Тe
(°С)
Pmin
(гПа)
dP
(гПа)
Po
(мм)
O2
(г/м3)
Тmin Tmax R s Состояние
почвы
03 19.03.19 200 (Ю) 3-5{06}  20000 м    3/3 1000 м 
[Sc]
+1 -1.4 84 -1  1013.7  0.8  746  299           
06 19.03.19 210 (ЮЗ) 4-6{08}  20000 м    9/9 1500 м 
[Sc]
+2.5 -0.6 80 1014.9  1.3  747  298  +0.9        влажная 
09 19.03.19 220 (ЮЗ) 6-8{11}  20000 м  в посл. час дождь  9/8 500 м средняя 
[Cu Sc|Ac As]
+4.4 +1.2 80 +2  1016.7  1.9  748  296           
12 19.03.19 240 (ЮЗ) 6-9{14}  20000 м  {дождь}  8/8 1020 м 
[Cu med, cong]
+4.8 -1.9 62 +2  1018.5  1.8  749  297      0.0     
15 19.03.19 240 (ЮЗ) 5-8{13}  20000 м    8/6 1500 м средняя 
[Cu Sc|Ac trans]
+5.1 -1 65 +3  1020.3  1.8  751  297           
18 19.03.19 260 (З) 3-6{11}  20000 м  {ливн. осадки}  9/9 2000 м 
[Sc]
+2.4 -0.3 82 +1  1023  2.4  753  301    +6.7  0.0     
21 19.03.19 280 (З) 4-6{08}  20000 м    9/9 1500 м 
[Sc]
+2.3 -1.1 78 1024.7  1.7  754  301           
00 20.03.19 260 (З) 4-7{07}  20000 м    9/9 1170 м 
[Sc]
+1 -0.9 87 -1  1025.9  1.1  755  303           
03 20.03.19 290 (З) 4-7{08}  20000 м    10/10 660 м 
[Sc]
+0.5 -2.8 79 -2  1027  755  304           
06 20.03.19 280 (З) 2-4{07}  20000 м    9/9 600 м 
[Sc]
+0.9 -2.3 79 1028.5  1.5  757  304  +0.1        влажная 
09 20.03.19 280 (З) 4-6{06}  20000 м    4/4 750 м 
[Cu med, cong]
+4.3 -1.7 65 +3  1029.1  0.8  757  301           
12 20.03.19 280 (З) 5-8{09}  20000 м    8/8 1500 м 
[Cu Sc]
+5.7 -3.2 53 +4  1028.6  -0.3  757  299           
15 20.03.19 250 (З) 4-6{10}  20000 м    9/6 1500 м средняя 
[Cu Sc|Ac trans]
+5.9 -3.6 50 +4  1027.6  -1  756  299           
18 20.03.19 240 (ЮЗ) 3-5{06}  20000 м    10/8 2000 м средняя 
[Sc|Ac As]
+4.8 -2.8 58 +4  1027.2  -0.5  756  300    +7.6       
21 20.03.19 230 (ЮЗ) 5-9{09}  20000 м    9/5 1440 м средняя 
[Sc|Ac trans]
+4.8 -2.8 58 +3  1024.5  -2.6  754  299           
00 21.03.19 260 (З) 5-8{12}  6000 м  слаб. дождь{морось}  10/10 330 м 
[Ns]
+3.8 +1.7 86 +1  1024.3  -0.3  754  299      0.2     
03 21.03.19 300 (СЗ) 3-5{09}  19000 м  {дождь, морось}  10/10 210 м 
[St]
+4.4 +3.2 92 +3  1025.4  1.1  754  299           
06 21.03.19 280 (З) 3-5{06}  19000 м  {дождь, морось}  9/9 800 м 
[Sc]
+4.6 +2.8 88 +3  1026.8  1.4  755  299  +3.6    0.4    влажная 
09 21.03.19 280 (З) 4-7{07}  20000 м    9/9 360 м 
[St]
+5.9 +2.9 81 +4  1027.5  0.8  756  298           
12 21.03.19 290 (З) 4-6{08}  19000 м    9/9 400 м 
[St]
+6.6 +3.6 81 +5  1026.8  -0.6  756  297           
15 21.03.19 270 (З) 4-6{09}  20000 м    9/9 1200 м 
[Sc]
+7.8 +2.7 70 +7  1025.3  -1.4  755  295           
18 21.03.19 240 (ЮЗ) 5-8{10}  11000 м  слаб. морось  10/10 660 м 
[Ns]
+6.9 +4.4 84 +5  1023.9  -1.5  753  295    +8  0.0     
21 21.03.19 270 (З) 5-9{11}  8000 м  дымка{дождь, морось}  10/10 180 м 
[St]
+7.8 +6.8 93 +6  1022  -1.8  752  293           
00 22.03.19 280 (З) 5-9{11}  10 км  слаб. морось{дождь}  10/10 180 м 
[Ns]
+6.7 +6 95 +5  1021.8  -0.3  752  295      0.5     
03 22.03.19 290 (З) 6-10{11}  4200 м  дымка{морось}  10/10 100 м 
[St]
+6.2 +5.8 97 +4  1022.4  0.6  752  295           
Время (UTC), дата Ветер
(°,м/с) 
Видим.   Явления Облачность Т
(°С)
Тd
(°С)
f(%) Тe
(°С)
Pmin
(гПа)
dP
(гПа)
Po
(мм)
O2
(г/м3)
Тmin Tmax R s Состояние
почвы

Для получения пояснительной информации подведите курсор к названию столбца.

ПОГОДА в Вильнюсе - архив

Всё, что Вы хотите узнать о погоде в Вильнюсе - удобно и подробно!

Выберите нужную дату (начиная с 1 января 2018* года) и нажмите кнопку "Найти".
Будут отображены архивные сводки погоды по пункту Вильнюс, начиная с указанной даты.


Отображать данные в формате CSV (для использования в таблицах Excel)


Внимание! Наш архив погоды предназначен исключительно для личного некоммерческого использования в познавательных целях. Если Вам необходимы официальные справки о состоянии погоды (для производственных, юридических, коммерческих и т.п. целей), обращайтесь в органы Росгидромета.

*Примечание: данная дата относится к архиву по метеостанциям СССР (Россия, СНГ, Балтия).
Архив по метеостанциям Зарубежной Европы и Азии (кроме Китая) хранится 10 дней, по другим регионам земного шара (Китай, Африка, Америка, Австралия, Океания) - 1 день.

Вильнюс - район местоположения метеостанции


Название, широта, долгота, высота метеостанции:
Вильнюс 54.6°ш. 25.1°д. 156 м над ур. моря [Литва]

Дополнительная информация

В oтличие oт бoльшинства пoгoдных сайтoв мы публикуем пoдрoбную метеoинфoрмацию в детальнoм прoфессиoнальнoм фoрмате.

Характеристики температуры и влажнoсти вoздуха измеряются на высoте 2 м в тени вдали oт зданий и деревьев.
Скoрoсть ветра измеряется на высoте 10 м (на урoвне рoста челoвека скoрoсть ветра ниже в 1.5-2 раза). Если метеoстанция нахoдится в гoрoде или в лесу, тo скoрoсть ветра занижена на 2-4 м/с пo сравнению с oткрытым местoм. Скoрoсть ветра над акватoриями крупных рек и oзёр, а также на вершинах хoлмoв на 2-5 м/с выше, чем в oбычных услoвиях.
Атмoсфернoе давление в разных тoчках местнoсти мoжет значительнo oтличаться oт давления на метеoстанции, в зависимoсти oт услoвий рельефа (при пoдъёме на 10 м давление пoнижается примернo на 1 мм рт.ст.).